| time (UTC) | temp F | wind direction | speed knots | gust knots | rain 1hr in | rain 24hr in | rain mn in | humidity % | barometer mb |
| 20260901131531 | 82 | 316 | 1.7 | 7.0 | 0.00 | 0.00 | 0.00 | 39 | 1019.4 |
| 20260901130029 | 81 | 5 | 5.2 | 9.6 | 0.00 | 0.00 | 0.00 | 39 | 1019.6 |
| 20260901124528 | 81 | 355 | 3.5 | 7.8 | 0.00 | 0.00 | 0.00 | 41 | 1019.8 |
| 20260901123027 | 81 | 99 | 2.6 | 8.7 | 0.00 | 0.00 | 0.00 | 39 | 1019.8 |
| 20260901121525 | 80 | 341 | 2.6 | 7.0 | 0.00 | 0.00 | 0.00 | 42 | 1019.9 |
| 20260901120022 | 80 | 292 | 0.9 | 7.8 | 0.00 | 0.00 | 0.00 | 42 | 1019.9 |
| 20260901114520 | 80 | 263 | 4.3 | 7.8 | 0.00 | 0.00 | 0.00 | 43 | 1020.0 |
| 20260901113018 | 79 | 351 | 3.5 | 8.7 | 0.00 | 0.00 | 0.00 | 44 | 1020.1 |
| 20260901111516 | 79 | 347 | 1.7 | 6.1 | 0.00 | 0.00 | 0.00 | 43 | 1020.3 |
| 20260901110014 | 79 | 342 | 2.6 | 7.8 | 0.00 | 0.00 | 0.00 | 46 | 1020.4 |
| 20260901104526 | 78 | 297 | 2.6 | 6.1 | 0.00 | 0.00 | 0.00 | 49 | 1020.5 |
| 20260901103010 | 78 | 302 | 3.5 | 5.2 | 0.00 | 0.00 | 0.00 | 51 | 1020.6 |
| 20260901101510 | 77 | 350 | 3.5 | 7.0 | 0.00 | 0.00 | 0.00 | 51 | 1020.9 |
| 20260901100005 | 77 | 319 | 3.5 | 7.8 | 0.00 | 0.00 | 0.00 | 55 | 1020.9 |
| 20260901094508 | 76 | 12 | 2.6 | 6.1 | 0.00 | 0.00 | 0.00 | 57 | 1021.0 |
| 20260901093105 | 76 | 5 | 1.7 | 6.1 | 0.00 | 0.00 | 0.00 | 56 | 1021.0 |
| 20260901091602 | 75 | 53 | 3.5 | 6.1 | 0.00 | 0.00 | 0.00 | 59 | 1021.1 |
| 20260901090052 | 74 | 360 | 2.6 | 3.5 | 0.00 | 0.00 | 0.00 | 60 | 1021.0 |
| 20260901084549 | 73 | 23 | 2.6 | 4.3 | 0.00 | 0.00 | 0.00 | 63 | 1021.1 |
| 20260901083044 | 72 | 18 | 3.5 | 6.1 | 0.00 | 0.00 | 0.00 | 65 | 1020.9 |
| 20260901081540 | 71 | 331 | 0.9 | 4.3 | 0.00 | 0.00 | 0.00 | 68 | 1021.0 |
| 20260901080036 | 69 | 355 | 1.7 | 4.3 | 0.00 | 0.00 | 0.00 | 69 | 1021.0 |
| 20260901074538 | 68 | 5 | 0.9 | 3.5 | 0.00 | 0.00 | 0.00 | 72 | 1020.9 |
| 20260901073027 | 66 | 29 | 0.9 | 3.5 | 0.00 | 0.00 | 0.00 | 74 | 1020.8 |
| 20260901071523 | 64 | 11 | 1.7 | 4.3 | 0.00 | 0.00 | 0.00 | 77 | 1020.8 |
| 20260901070018 | 61 | 42 | 0.0 | 2.6 | 0.00 | 0.00 | 0.00 | 84 | 1020.9 |
| 20260901064514 | 59 | 84 | 0.0 | 1.7 | 0.00 | 0.00 | 0.00 | 88 | 1020.8 |
| 20260901063008 | 57 | 56 | 0.0 | 0.0 | 0.00 | 0.00 | 0.00 | 91 | 1020.7 |
| 20260901061505 | 56 | 56 | 0.0 | 0.0 | 0.00 | 0.00 | 0.00 | 92 | 1020.7 |
| 20260901060105 | 55 | 56 | 0.0 | 0.0 | 0.00 | 0.00 | 0.00 | 92 | 1020.6 |
| 20260901054558 | 55 | 56 | 0.0 | 0.0 | 0.00 | 0.00 | 0.00 | 92 | 1020.5 |
| 20260901053108 | 55 | 56 | 0.0 | 0.0 | 0.00 | 0.00 | 0.00 | 93 | 1020.3 |
| 20260901051552 | 54 | 56 | 0.0 | 0.0 | 0.00 | 0.00 | 0.00 | 92 | 1020.3 |
| 20260901050050 | 55 | 56 | 0.0 | 0.0 | 0.00 | 0.00 | 0.00 | 91 | 1020.3 |
| 20260901044549 | 55 | 56 | 0.0 | 0.0 | 0.00 | 0.00 | 0.00 | 92 | 1020.2 |
| 20260901043107 | 55 | 56 | 0.0 | 0.0 | 0.00 | 0.00 | 0.00 | 91 | 1020.3 |
| 20260901041546 | 55 | 56 | 0.0 | 0.0 | 0.00 | 0.00 | 0.00 | 90 | 1020.3 |
| 20260901040050 | 56 | 56 | 0.0 | 2.6 | 0.00 | 0.00 | 0.00 | 90 | 1020.2 |
| 20260901034553 | 56 | 56 | 0.9 | 2.6 | 0.00 | 0.00 | 0.00 | 90 | 1020.3 |
| 20260901033100 | 56 | 355 | 0.0 | 0.0 | 0.00 | 0.00 | 0.00 | 90 | 1020.3 |
| 20260901031602 | 57 | 355 | 0.0 | 0.0 | 0.00 | 0.00 | 0.00 | 89 | 1020.4 |
| 20260901030044 | 57 | 355 | 0.0 | 0.0 | 0.00 | 0.00 | 0.00 | 89 | 1020.5 |
| 20260901024538 | 57 | 355 | 0.0 | 0.0 | 0.00 | 0.00 | 0.00 | 89 | 1020.5 |
| 20260901023036 | 57 | 355 | 0.0 | 0.0 | 0.00 | 0.00 | 0.00 | 88 | 1020.5 |
| 20260901021537 | 57 | 355 | 0.0 | 0.0 | 0.00 | 0.00 | 0.00 | 88 | 1020.4 |
| 20260901020037 | 57 | 355 | 0.0 | 0.0 | 0.00 | 0.00 | 0.00 | 88 | 1020.4 |
| 20260901014535 | 57 | 355 | 0.0 | 0.0 | 0.00 | 0.00 | 0.00 | 87 | 1020.4 |
| 20260901013040 | 57 | 355 | 0.0 | 0.0 | 0.00 | 0.00 | 0.00 | 87 | 1020.5 |
| 20260901011534 | 58 | 355 | 0.0 | 0.0 | 0.00 | 0.00 | 0.00 | 87 | 1020.5 |
| 20260901010035 | 58 | 355 | 0.0 | 0.0 | 0.00 | 0.00 | 0.00 | 86 | 1020.4 |
| 20260901004529 | 58 | 355 | 0.0 | 0.0 | 0.00 | 0.00 | 0.00 | 85 | 1020.5 |
| 20260901003027 | 59 | 355 | 0.0 | 0.0 | 0.00 | 0.00 | 0.00 | 85 | 1020.5 |
| 20260901001536 | 59 | 355 | 0.0 | 0.0 | 0.00 | 0.00 | 0.00 | 83 | 1020.6 |
| 20260901000030 | 59 | 355 | 0.0 | 0.0 | 0.00 | 0.00 | 0.00 | 82 | 1020.5 |
| 20260831234525 | 60 | 355 | 0.0 | 0.0 | 0.00 | 0.00 | 0.00 | 82 | 1020.6 |
| 20260831233021 | 60 | 355 | 0.0 | 1.7 | 0.00 | 0.00 | 0.00 | 81 | 1020.5 |
| 20260831231519 | 60 | 89 | 0.0 | 1.7 | 0.00 | 0.00 | 0.00 | 80 | 1020.4 |
| 20260831230017 | 61 | 79 | 0.0 | 1.7 | 0.00 | 0.00 | 0.00 | 78 | 1020.4 |
| 20260831224515 | 61 | 79 | 0.0 | 1.7 | 0.00 | 0.00 | 0.00 | 77 | 1020.4 |
| 20260831223012 | 62 | 90 | 0.0 | 2.6 | 0.00 | 0.00 | 0.00 | 75 | 1020.4 |
| 20260831221510 | 63 | 108 | 0.9 | 2.6 | 0.00 | 0.00 | 0.00 | 74 | 1020.5 |
| 20260831220007 | 63 | 19 | 0.0 | 0.0 | 0.00 | 0.00 | 0.00 | 72 | 1020.4 |
| 20260831214507 | 64 | 19 | 0.0 | 1.7 | 0.00 | 0.00 | 0.00 | 70 | 1020.4 |
| 20260831213010 | 65 | 19 | 0.9 | 2.6 | 0.00 | 0.00 | 0.00 | 68 | 1020.4 |
| 20260831211505 | 65 | 5 | 0.9 | 2.6 | 0.00 | 0.00 | 0.00 | 67 | 1020.4 |
| 20260831210004 | 66 | 5 | 0.9 | 2.6 | 0.00 | 0.02 | 0.00 | 66 | 1020.3 |
| 20260831204503 | 67 | 23 | 1.7 | 2.6 | 0.00 | 0.02 | 0.00 | 64 | 1020.2 |
| 20260831203002 | 67 | 355 | 1.7 | 3.5 | 0.00 | 0.02 | 0.00 | 63 | 1020.1 |
| 20260831201603 | 67 | 355 | 0.9 | 3.5 | 0.00 | 0.02 | 0.00 | 66 | 1020.0 |
| 20260831200058 | 69 | 321 | 0.0 | 0.9 | 0.00 | 0.02 | 0.00 | 63 | 1019.8 |
| 20260831194612 | 70 | 321 | 0.0 | 1.7 | 0.00 | 0.03 | 0.00 | 61 | 1019.7 |
| 20260831193056 | 71 | 321 | 0.0 | 1.7 | 0.00 | 0.03 | 0.00 | 54 | 1019.5 |
| 20260831191602 | 72 | 316 | 0.9 | 4.3 | 0.00 | 0.03 | 0.00 | 52 | 1019.5 |
| 20260831190145 | 73 | 300 | 0.9 | 3.5 | 0.00 | 0.03 | 0.00 | 51 | 1019.2 |
| 20260831184553 | 74 | 313 | 0.9 | 3.5 | 0.00 | 0.03 | 0.00 | 50 | 1019.1 |
| 20260831183046 | 74 | 317 | 1.7 | 6.1 | 0.00 | 0.03 | 0.00 | 49 | 1018.9 |
| 20260831181552 | 75 | 317 | 2.6 | 7.8 | 0.00 | 0.03 | 0.00 | 48 | 1018.8 |
| 20260831180044 | 76 | 284 | 2.6 | 7.8 | 0.00 | 0.03 | 0.00 | 48 | 1018.7 |
| 20260831174544 | 76 | 333 | 4.3 | 8.7 | 0.00 | 0.03 | 0.00 | 48 | 1018.6 |
| 20260831173057 | 77 | 325 | 4.3 | 8.7 | 0.00 | 0.03 | 0.00 | 47 | 1018.6 |
| 20260831171542 | 77 | 17 | 3.5 | 6.1 | 0.00 | 0.03 | 0.00 | 50 | 1018.5 |
| 20260831170042 | 77 | 307 | 2.6 | 9.6 | 0.00 | 0.03 | 0.00 | 48 | 1018.5 |
| 20260831164554 | 79 | 323 | 4.3 | 8.7 | 0.00 | 0.03 | 0.00 | 47 | 1018.4 |
| 20260831163041 | 80 | 360 | 4.3 | 10.4 | 0.00 | 0.03 | 0.00 | 46 | 1018.4 |
| 20260831161540 | 80 | 299 | 1.7 | 4.3 | 0.00 | 0.03 | 0.00 | 47 | 1018.4 |
| 20260831160038 | 80 | 328 | 0.9 | 3.5 | 0.00 | 0.03 | 0.00 | 45 | 1018.4 |
| 20260831154538 | 79 | 79 | 1.7 | 7.0 | 0.00 | 0.03 | 0.00 | 44 | 1018.4 |
| 20260831153042 | 79 | 94 | 2.6 | 4.3 | 0.00 | 0.03 | 0.00 | 46 | 1018.4 |
| 20260831151536 | 80 | 57 | 3.5 | 7.0 | 0.00 | 0.03 | 0.00 | 46 | 1018.5 |
| 20260831150036 | 80 | 350 | 0.9 | 5.2 | 0.00 | 0.03 | 0.00 | 45 | 1018.5 |
| 20260831144535 | 80 | 5 | 1.7 | 6.1 | 0.00 | 0.03 | 0.00 | 46 | 1018.6 |
| 20260831143035 | 80 | 325 | 4.3 | 7.0 | 0.00 | 0.03 | 0.00 | 46 | 1018.7 |
| 20260831141534 | 80 | 235 | 2.6 | 6.1 | 0.00 | 0.03 | 0.00 | 45 | 1018.7 |
| 20260831140032 | 79 | 236 | 2.6 | 5.2 | 0.00 | 0.03 | 0.00 | 48 | 1018.8 |
| 20260831134533 | 78 | 247 | 0.9 | 3.5 | 0.00 | 0.03 | 0.00 | 50 | 1018.8 |
| 20260831133035 | 79 | 298 | 4.3 | 7.0 | 0.00 | 0.03 | 0.00 | 48 | 1018.9 |